Flag for Kenya Weather past 2 weeks in Nairobi, Kenya

Now
79 °F

Partly sunny.


Feels Like: 79 °F
Forecast: 55 / 77 °F
Wind: 8 mph from East

Location: Nairobi / Wilson

Current Time: Aug 28, 2014 at 4:38:28 PM

Latest Report: Aug 28, 2014 at 4:00 PM


Visibility: N/A

Pressure: 30.07 "Hg

Humidity: 39%

Dew point: 52 °F

Location of NairobiLocation

Historic Weather in Nairobi — Graph

°F

Nairobi temperature yesterday

Maximum temperature yesterday: 79 °F (at 4:00 PM)
Minimum temperature yesterday: 55 °F (at 5:00 AM)
Average temperature yesterday: 68 °F

Past Weeks' High & Low Weather Summary

 TemperatureHumidityPressure
High82 °F (Aug 23, 3:00 PM)94% (Aug 16, 8:00 AM)30.33 "Hg (Aug 16, 8:00 AM)
Low52 °F (Aug 20, 5:00 AM)32% (Aug 26, 6:00 PM)30.01 "Hg (Aug 23, 3:00 PM)
Average66 °F67%30.17 "Hg
* Reported Aug 13 3:00 PM — Aug 28 3:00 PM, Nairobi, Weather by CustomWeather, © 2014

Note: Actual official high and low records may vary slightly from our data, if they occured in-between our weather recording intervals... More about our weather records

Advertising

Nairobi weather history for previous 24 hours

 ConditionsComfort  
Time TempWeatherWind HumidityBarometerVisibility
3:00 PM
Aug 28
77 °FPartly sunny.14 mph42%30.09 "HgN/A
2:00 PM77 °FPartly sunny.No wind44%30.09 "HgN/A
1:00 PM72 °FPartly sunny.No wind53%30.15 "HgN/A
12:00 PM72 °FPartly sunny.No wind50%30.15 "HgN/A
11:00 AM70 °FScattered clouds.No wind57%30.18 "HgN/A
10:00 AM68 °FPassing clouds.7 mph56%30.18 "HgN/A
9:00 AM64 °FScattered clouds.9 mph68%30.18 "HgN/A
8:00 AM59 °FSunny.No wind82%30.15 "Hg10 mi
7:00 AM55 °FSunny.5 mph94%30.15 "Hg10 mi
6:00 AM55 °FClear.No wind94%30.12 "HgN/A
5:00 AM57 °FClear.No wind88%30.12 "HgN/A
12:00 AM63 °FClear.No wind73%30.12 "HgN/A
11:00 PM
Aug 27
66 °FClear.No wind64%30.12 "HgN/A
10:00 PM66 °FClear.No wind60%30.12 "HgN/A
9:00 PM68 °FPassing clouds.3 mph56%30.09 "HgN/A
8:00 PM72 °FPassing clouds.12 mph47%30.09 "HgN/A
7:00 PM72 °FPassing clouds.3 mph47%30.07 "HgN/A
5:00 PM79 °FPartly sunny.No wind34%30.07 "HgN/A
4:00 PM79 °FPartly sunny.No wind34%30.07 "HgN/A
Weather by CustomWeather, © 2014

See weather overviewHow to use our weather pages